Location: Pf�ffikon
(47.2015°N, 8.7809°E)
Time: 08:44:54
(UTC+00:00)

Helios 1B rocket - Pass Details

Date: 07 June 2020
Orbit: 575 x 583 km, 98.1° (Epoch: 14 July)

Event Time Altitude Azimuth Distance (km) Brightness Sun altitude
Rises 00:42:14 0° 5° (N) 2,820 7.4 -17.8°
Reaches altitude 10° 00:44:33 10° 355° (N) 1,915 6.1 -17.7°
Maximum altitude 00:48:13 31° 293° (WNW) 1,034 3.7 -17.5°
Enters shadow 00:49:56 23° 251° (WSW) 1,277 3.8 -17.4°
